Location: Unspecified
(51.3762°N, 0.0000°E)
Time: 11:03:29
(UTC+00:00)

nSIGHT-1 - Pass Details

Date: 26 August 2019
Orbit: 342 x 348 km, 51.6° (Epoch: 19 September)

Event Time Altitude Azimuth Distance (km) Brightness Sun altitude
Exits shadow 04:05:02 13° 259° (WSW) 1,144 ? -9.0°
Maximum altitude 04:07:33 86° 169° (S) 349 ? -8.7°
Drops below altitude 10° 04:10:27 10° 82° (E) 1,299 ? -8.3°
Sets 04:12:28 0° 82° (E) 2,142 ? -8.0°
